Location: Passo di Treia
(43.2833°N, 13.3333°E)
Time: 08:57:37
(UTC+00:00)

Cosmos 1655 Rocket - Pass Details

Date: 09 December 2019
Orbit: 970 x 1006 km, 83.0° (Epoch: 20 January)

Event Time Altitude Azimuth Distance (km) Brightness Sun altitude
Rises 17:56:18 0° 181° (S) 3,703 7.1 -25.6°
Reaches altitude 10° 17:58:49 10° 180° (S) 2,753 6.4 -26.1°
Maximum altitude 18:05:07 77° 95° (E) 1,016 3.8 -27.2°
Enters shadow 18:06:28 57° 26° (NNE) 1,153 4.1 -27.4°
